Tracking 28514 objects as of 23-Feb-2024
HD Live streaming from Space Station
objects crossing your sky now

STARLINK-2585

Track STARLINK-2585 now!
10-day predictions
STARLINK-2585 is classified as:


NORAD ID: 48382
Int'l Code: 2021-038AF
Perigee: 553.1 km
Apogee: 555.5 km
Inclination: 53.1 °
Period: 95.6 minutes
Semi major axis: 6925 km
RCS: Unknown
Launch date: May 4, 2021
Source: United States (US)
Launch site: AIR FORCE EASTERN TEST RANGE (AFETR)
Your satellite tracking list
Your tracking list is empty




NASA's NSSDC Master Catalog

Two Line Element Set (TLE):
1 48382U 21038AF  24054.38362006  .00006595  00000-0  46107-3 0  9998
2 48382  53.0522  97.4300 0001685  81.0944 279.0236 15.06411337154834
Source of the keplerian elements: AFSPC